EW2984 Weather Reports


Display with metric or nautical units.
time (UTC)temp
F
wind
direction
speed
MPH
gust
MPH
rain 1hr
in
rain 24hr
in
rain mn
in
humidity
%
barometer
mb
20260903153009 73 217 0.0 3.0 0.03 0.65 0.34 98 1016.4
20260903151513 73 295 0.0 2.0 0.03 0.65 0.34 98 1016.7
20260903150029 73 228 0.0 5.0 0.01 0.63 0.32 96 1017.7
20260903144516 74 213 0.0 2.0 0.00 0.62 0.31 95 1017.9
20260903143011 75 330 0.0 2.0 0.00 0.62 0.31 95 1017.9
20260903141507 76 232 0.0 3.0 0.00 0.62 0.31 95 1017.6
20260903140006 75 218 0.0 1.0 0.00 0.62 0.31 97 1016.5
20260903134621 73 212 0.0 1.0 0.00 0.62 0.31 98 1016.4
20260903133101 72 216 0.0 2.0 0.00 0.62 0.31 99 1015.8
20260903131555 71 230 0.0 3.0 0.00 0.62 0.31 99 1016.3
20260903130101 71 217 0.0 0.0 0.00 0.62 0.31 99 1016.5
20260903124557 70 217 0.0 1.0 0.00 0.62 0.31 99 1016.8
20260903123052 70 221 0.0 1.0 0.01 0.62 0.31 100 1016.8
20260903121554 70 219 0.0 1.0 0.01 0.62 0.31 100 1016.4
20260903120100 70 141 0.0 7.0 0.01 0.62 0.31 100 1015.8
20260903114550 69 158 0.0 6.0 0.01 0.62 0.31 100 1015.8
20260903113052 69 121 0.0 2.0 0.01 0.61 0.30 99 1016.4
20260903111546 69 155 0.0 1.0 0.01 0.61 0.30 99 1017.4
20260903110044 69 235 0.0 3.0 0.02 0.61 0.30 99 1017.5
20260903104544 69 210 0.0 1.0 0.23 0.61 0.30 99 1017.4
20260903103043 69 128 0.0 1.0 0.28 0.60 0.28 99 1017.5
20260903101543 69 112 0.0 0.0 0.28 0.60 0.28 99 1018.5
20260903100042 69 140 0.0 3.0 0.28 0.59 0.28 99 1018.0
20260903094554 69 328 0.0 1.0 0.07 0.38 0.07 98 1018.7
20260903093039 69 110 0.0 4.0 0.00 0.31 0.00 98 1017.1
20260903091537 69 131 0.0 4.0 0.00 0.31 0.00 98 1017.2
20260903090036 70 131 1.0 2.0 0.00 0.31 0.00 97 1017.8
20260903084543 70 136 0.0 0.0 0.00 0.32 0.00 97 1017.9
20260903083033 70 105 0.0 1.0 0.00 0.32 0.00 97 1018.1
20260903081532 70 91 0.0 1.0 0.00 0.32 0.00 97 1017.7
20260903080030 71 96 0.0 2.0 0.00 0.32 0.00 97 1017.8
20260903074529 71 89 0.0 3.0 0.00 0.32 0.00 97 1017.7
20260903073029 71 130 0.0 2.0 0.00 0.32 0.00 97 1016.8
20260903071528 71 124 0.0 3.0 0.00 0.32 0.00 97 1016.5
20260903070029 71 160 0.0 1.0 0.00 0.32 0.00 97 1016.5
20260903064525 71 131 0.0 2.0 0.00 0.32 0.00 97 1016.3
20260903063029 71 110 0.0 2.0 0.00 0.32 0.00 96 1016.4
20260903061533 72 117 1.0 3.0 0.00 0.32 0.00 96 1016.6
20260903060022 72 127 0.0 3.0 0.00 0.32 0.00 96 1017.1
20260903054516 72 122 0.0 2.0 0.00 0.32 0.00 97 1017.2
20260903053026 71 120 0.0 1.0 0.00 0.32 0.00 97 1017.6
20260903051512 71 86 0.0 2.0 0.00 0.32 0.00 98 1018.1
20260903050010 71 119 0.0 1.0 0.00 0.34 0.00 98 1018.0
20260903044506 71 176 0.0 2.0 0.00 0.34 0.00 98 1016.9
20260903043012 71 115 0.0 4.0 0.00 0.34 0.00 98 1017.0
20260903041504 71 194 0.0 3.0 0.00 0.34 0.00 98 1016.9
20260903040002 71 125 0.0 5.0 0.00 0.61 0.34 98 1017.0
20260903034502 71 123 1.0 5.0 0.00 0.61 0.34 98 1017.1
20260903033002 71 102 0.0 3.0 0.00 0.61 0.34 97 1017.5
20260903031632 71 132 0.0 3.0 0.00 0.61 0.34 97 1017.6
20260903030100 71 132 0.0 2.0 0.00 0.61 0.34 97 1017.8
20260903024607 71 139 0.0 2.0 0.00 0.67 0.34 97 1017.7
20260903023059 71 107 0.0 4.0 0.00 0.67 0.34 97 1017.3
20260903021559 71 113 0.0 3.0 0.00 0.67 0.34 97 1017.1
20260903020104 71 129 0.0 2.0 0.00 0.67 0.34 97 1017.0
20260903014603 71 110 0.0 0.0 0.00 0.67 0.34 96 1017.3
20260903013057 72 110 0.0 0.0 0.00 0.67 0.34 95 1017.7
20260903011559 72 234 0.0 0.0 0.00 0.67 0.34 95 1017.5
20260903010056 72 111 0.0 1.0 0.00 0.67 0.34 95 1017.5
20260903004556 72 210 0.0 0.0 0.00 0.67 0.34 96 1017.4
20260903003055 72 210 0.0 0.0 0.00 0.67 0.34 95 1017.2
20260903001555 72 212 0.0 0.0 0.00 0.67 0.34 95 1017.0
20260903000057 73 200 0.0 0.0 0.00 0.67 0.34 95 1017.2
20260902234556 73 114 0.0 1.0 0.00 0.67 0.34 95 1017.3
20260902233054 74 138 0.0 0.0 0.00 0.67 0.34 94 1017.1
20260902231553 74 134 0.0 1.0 0.00 0.67 0.34 93 1017.2
20260902230055 75 147 0.0 1.0 0.00 0.67 0.34 92 1017.1
20260902224551 76 218 0.0 2.0 0.00 0.67 0.34 92 1017.0
20260902223050 77 127 0.0 2.0 0.00 0.67 0.34 91 1017.0
20260902221549 77 226 0.0 2.0 0.00 0.67 0.34 90 1016.9
20260902220049 77 214 0.0 0.0 0.00 0.67 0.34 91 1017.2
20260902214553 78 131 0.0 2.0 0.00 0.67 0.34 88 1017.3
20260902213047 78 219 0.0 1.0 0.00 0.67 0.34 89 1017.1
20260902211558 79 231 0.0 1.0 0.00 0.67 0.34 88 1017.1
20260902210109 77 247 0.0 0.0 0.00 0.67 0.34 91 1017.3
20260902204543 77 243 0.0 1.0 0.00 0.67 0.34 90 1017.4
20260902203040 77 221 0.0 0.0 0.00 0.67 0.34 94 1017.7
20260902201538 75 210 0.0 1.0 0.00 0.67 0.34 95 1017.6
20260902200037 74 186 0.0 0.0 0.00 0.67 0.34 97 1017.7
20260902194537 74 343 0.0 0.0 0.00 0.67 0.34 98 1017.7
20260902193036 73 343 0.0 1.0 0.00 0.67 0.34 98 1017.8
20260902191542 72 253 0.0 1.0 0.00 0.67 0.34 99 1017.5
20260902190040 71 239 0.0 1.0 0.00 0.67 0.34 99 1017.2
20260902184534 70 135 0.0 3.0 0.01 0.67 0.34 99 1017.1
20260902183035 70 137 0.0 3.0 0.04 0.67 0.34 99 1017.6
20260902181534 69 131 0.0 3.0 0.07 0.67 0.34 99 1017.4
20260902180036 68 116 0.0 3.0 0.12 0.67 0.34 98 1017.3
20260902174532 69 126 0.0 1.0 0.14 0.66 0.33 98 1018.3
20260902173033 69 120 0.0 1.0 0.12 0.63 0.30 98 1019.2
20260902171531 69 203 0.0 1.0 0.10 0.59 0.26 97 1019.6
20260902170130 70 222 0.0 3.0 0.19 0.55 0.22 96 1020.3
20260902164530 73 233 0.0 1.0 0.16 0.52 0.19 97 1020.5
20260902163028 73 208 0.0 0.0 0.15 0.51 0.18 97 1020.6
20260902161528 74 208 0.0 1.0 0.13 0.49 0.16 94 1020.4
20260902160024 75 226 0.0 1.0 0.00 0.36 0.03 91 1019.1
20260902154524 75 122 1.0 5.0 0.00 0.36 0.03 90 1018.7